Wind_Speed
2 2 2 2 2 2 2 2 2 2 2 2 2 2 2 1 1 1 1 1 2 3 3 4 5 5 5 6 6 6 6 6 7 7 7 8 8 8 9 8 8 8 7
2 2 2 2 2 2 3 3 3 3 2 3 3 3 3 2 2 2 3 3 3 3 4 5 6 7 7 7 7 7 7 7 7 8 8 8 9 9 9 9 9 9 9
3 3 3 3 2 3 4 4 3 3 3 3 4 4 4 4 4 4 4 4 4 4 5 6 7 8 8 8 8 8 8 8 8 9 9 9 9 10 10 10 10 10 10
4 4 4 4 4 4 5 5 4 4 3 3 3 4 5 5 5 5 5 5 5 5 6 7 8 8 8 9 9 9 9 9 10 10 10 10 10 10 10 11 11 11 11
5 5 5 5 5 5 5 5 5 5 4 4 3 4 5 6 6 6 6 6 6 6 7 7 7 8 8 9 9 10 10 10 11 11 11 11 11 11 11 11 11 11 12
5 6 6 6 7 6 6 6 6 5 5 4 4 5 5 7 7 6 6 7 7 7 7 7 7 8 8 9 10 11 11 12 12 13 13 13 12 12 11 11 11 12 12
6 7 7 7 8 7 7 6 6 6 6 5 5 6 6 7 7 7 7 7 7 6 7 7 7 8 9 9 10 11 11 12 13 13 13 13 13 13 12 12 12 12 12
7 8 8 8 8 7 7 7 7 7 6 6 6 6 7 7 7 7 7 7 7 7 7 8 8 8 9 10 10 11 11 12 12 13 13 13 14 14 14 13 12 12 12
8 8 8 8 8 8 7 7 7 7 7 6 6 7 7 7 7 7 6 7 7 7 7 8 9 9 9 9 10 10 11 12 12 12 13 13 13 13 14 14 13 13 13
8 8 8 8 8 8 8 8 8 8 8 7 7 7 7 6 6 6 6 6 7 7 7 8 8 9 9 9 9 9 10 11 11 12 12 12 13 14 14 14 14 13 12
8 8 8 8 9 9 8 8 9 9 8 8 7 7 6 6 7 6 6 6 7 7 7 7 7 8 8 8 7 8 9 9 10 10 11 11 12 13 13 13 13 12 12
8 8 8 8 8 9 8 8 8 8 8 8 7 6 6 6 6 6 6 6 6 6 6 6 6 7 7 7 7 7 8 9 9 9 9 9 10 11 12 12 11 11 11
8 8 8 8 8 8 7 7 7 7 7 7 6 6 6 6 5 5 5 6 5 5 6 6 6 6 6 7 7 7 7 7 8 8 8 8 8 9 9 10 10 10 11
8 8 8 7 7 7 6 7 7 7 6 5 5 5 5 4 4 4 4 4 5 4 5 5 5 5 6 6 6 5 5 5 5 6 6 7 7 7 8 8 8 8 9
9 8 8 8 7 6 6 6 6 6 6 4 4 4 4 4 4 3 3 4 4 4 4 4 4 4 4 4 4 4 4 3 3 4 5 5 6 6 7 7 7 8 8
9 9 9 8 8 8 7 6 6 7 6 5 4 3 3 2 2 1 2 2 2 2 3 3 2 3 3 3 3 3 2 2 3 3 3 4 5 5 6 6 7 7 8
9 9 9 8 8 7 7 6 7 7 6 5 4 3 2 2 1 1 1 1 1 1 2 2 2 2 2 2 2 2 2 1 1 2 2 3 4 5 5 5 6 6 6
9 9 9 8 8 8 7 6 7 7 6 5 4 3 2 1 1 1 1 1 1 1 1 1 1 1 2 2 1 1 1 0 0 1 1 2 3 3 3 3 4 5 6
10 10 9 8 8 9 8 7 7 7 6 5 4 3 2 1 1 1 0 1 1 1 1 1 1 1 1 1 1 1 1 1 0 0 0 1 1 2 1 2 3 4 4
11 11 10 9 9 9 8 7 6 6 6 5 4 3 2 1 1 1 0 1 1 1 1 2 1 1 1 1 1 1 2 1 1 1 1 1 1 1 1 2 2 3 3
12 12 11 10 10 9 8 7 7 6 6 5 4 3 3 2 1 1 1 1 2 2 2 2 2 2 2 2 2 2 2 2 2 2 1 1 0 1 1 1 2 2 3
14 13 12 12 11 10 9 8 7 7 6 5 4 4 4 3 2 1 1 2 2 2 2 2 2 2 2 2 3 3 3 2 2 2 2 1 1 1 1 2 2 2 2
15 14 14 14 12 11 10 9 8 8 7 6 6 5 4 3 2 2 1 1 2 2 2 2 2 2 2 2 2 2 2 2 2 2 1 1 2 2 2 2 2 2 3
16 15 15 14 13 12 12 11 9 9 8 7 6 6 4 4 3 2 1 1 2 2 1 2 2 2 1 2 2 2 1 1 1 1 0 1 2 2 2 2 2 2 3
16 15 15 15 14 14 13 11 11 9 9 8 7 6 5 4 3 2 2 1 2 2 1 1 1 1 1 2 2 1 1 1 1 0 0 1 1 1 1 2 2 3 3
16 16 16 15 14 14 13 12 12 10 10 9 8 7 6 5 4 3 2 2 1 1 0 0 1 0 1 2 2 1 1 1 0 0 0 1 1 2 2 2 3 2 3
Wind_Direction
190 182 177 176 194 227 235 247 244 227 232 231 238 217 218 220 230 242 301 307 284 278 274 263 254 253 252 251 250 249 250 249 246 247 250 251 252 254 257 253 253 257 261
216 196 193 198 212 234 245 249 242 237 248 246 237 238 246 250 265 268 285 294 288 280 280 271 262 258 255 257 254 253 253 252 251 250 252 254 255 256 259 257 255 256 257
227 215 214 223 235 246 244 242 249 247 254 254 246 251 255 260 272 277 279 284 281 280 282 276 266 260 256 257 256 256 254 251 252 254 254 256 257 257 258 257 258 259 259
227 219 227 237 242 250 246 244 248 255 254 247 252 262 265 272 275 282 284 278 275 274 274 279 271 263 259 257 256 256 254 254 255 257 256 255 256 255 255 256 260 262 261
230 227 236 244 251 252 246 240 241 249 252 251 259 268 272 276 275 277 284 281 276 275 273 277 272 269 266 261 258 258 255 256 256 259 259 257 257 255 254 256 259 262 261
240 240 245 250 251 253 253 245 240 243 251 257 267 273 280 279 275 277 282 286 282 277 272 273 272 274 271 266 262 261 257 256 256 258 260 259 258 257 255 255 258 259 262
246 246 251 253 250 248 245 245 245 245 249 259 268 275 283 284 282 277 278 281 282 279 273 270 272 274 275 272 266 263 260 257 257 258 259 258 258 259 258 256 258 258 261
254 250 253 255 251 243 238 240 241 243 253 260 268 278 284 282 286 281 278 275 275 276 275 272 273 277 278 277 272 265 263 260 258 258 258 256 256 257 257 256 257 258 259
254 254 257 260 254 247 239 235 242 243 252 265 272 278 281 284 290 287 278 270 273 276 278 277 275 279 280 279 274 266 264 262 259 259 257 255 254 254 255 255 255 257 257
254 256 257 259 260 254 242 235 241 246 255 267 274 276 275 284 291 288 283 275 273 276 280 280 280 283 282 282 276 270 268 265 261 260 259 256 254 254 254 254 254 256 256
255 255 257 260 261 257 244 239 243 247 255 264 270 273 273 283 286 286 283 282 278 281 282 282 283 284 283 283 278 275 271 267 264 262 259 257 256 255 253 253 252 253 255
259 262 262 260 262 259 254 243 245 249 254 262 265 266 271 280 285 284 286 289 286 283 282 285 287 286 286 283 282 279 273 269 264 262 261 258 255 253 250 248 250 252 252
258 261 263 263 262 260 256 247 244 249 254 258 258 263 271 274 282 284 287 298 294 287 284 290 293 292 292 285 281 278 276 272 270 264 260 255 254 252 246 243 246 249 252
256 261 262 261 264 260 251 243 241 245 243 248 258 266 269 273 274 279 288 298 297 291 289 289 287 291 294 292 286 283 278 276 273 265 258 252 252 248 244 240 242 248 253
256 256 257 257 258 247 241 240 240 236 234 241 260 268 269 269 266 273 287 294 295 294 295 291 294 299 302 299 293 288 282 281 275 263 260 252 255 245 238 237 244 248 250
253 251 253 252 252 239 236 238 236 229 229 236 254 263 274 281 268 272 301 306 299 294 293 292 310 313 315 311 306 303 304 302 284 266 256 247 249 241 233 238 244 244 247
251 251 252 250 249 235 232 227 229 225 221 230 243 249 255 256 254 265 303 319 312 299 297 299 317 321 324 319 307 303 311 303 286 249 242 236 244 242 239 242 238 241 249
253 253 249 246 242 232 225 225 229 225 221 226 233 236 228 228 238 250 278 339 348 329 326 328 331 336 343 345 334 331 357 13 236 232 248 244 250 242 239 235 235 247 254
253 254 247 241 237 234 233 226 226 224 218 217 216 214 208 206 215 219 189 27 22 11 6 8 14 14 360 14 18 45 71 74 61 259 103 240 249 226 231 235 235 244 248
249 247 240 236 237 234 232 231 222 212 209 206 204 197 195 190 203 209 164 92 84 70 56 43 49 51 34 23 45 75 87 75 55 82 127 145 186 205 259 263 256 249 249
247 244 238 236 236 235 230 222 215 207 204 202 196 194 191 185 177 185 144 109 87 75 67 60 57 56 69 77 89 99 95 83 87 102 107 108 236 303 288 285 286 275 269
245 240 235 232 233 233 226 214 211 207 200 196 194 193 189 182 159 146 126 115 96 84 71 68 61 68 89 104 111 110 100 98 108 109 104 69 8 337 322 336 330 306 302
243 239 234 232 232 227 221 213 212 210 204 201 196 193 190 181 165 153 137 128 126 106 88 79 71 81 101 121 126 124 120 108 100 97 86 39 18 5 354 339 324 326 326
242 238 232 229 228 226 220 213 213 210 205 202 199 196 192 188 181 176 167 151 152 134 115 99 96 89 120 140 137 136 140 126 114 95 88 16 15 13 1 3 356 349 349
239 235 231 230 229 226 223 216 212 209 202 199 199 197 192 188 186 179 173 166 163 162 153 109 77 107 159 168 162 160 169 178 209 245 261 326 355 352 342 341 351 352 357
239 234 232 230 226 223 219 215 210 207 202 200 200 199 193 190 189 185 183 175 167 170 292 344 15 94 152 161 153 149 152 178 246 289 293 283 312 319 315 321 327 326 337
Height
5899 5899 5899 5898 5898 5898 5898 5897 5897 5896 5896 5896 5896 5895 5895 5895 5895 5894 5894 5894 5894 5894 5894 5893 5893 5893 5894 5894 5894 5894 5894 5894 5895 5895 5895 5895 5895 5895 5895 5895 5896 5896 5896
5899 5898 5898 5898 5897 5897 5897 5896 5896 5896 5896 5895 5895 5895 5895 5895 5894 5894 5893 5893 5893 5893 5893 5892 5892 5892 5892 5893 5893 5893 5893 5893 5893 5894 5894 5894 5894 5894 5894 5894 5894 5895 5895
5898 5897 5897 5897 5897 5896 5896 5896 5895 5895 5895 5895 5894 5894 5894 5894 5893 5893 5892 5892 5892 5892 5891 5891 5891 5891 5891 5891 5891 5891 5891 5892 5892 5892 5892 5892 5893 5893 5893 5893 5893 5893 5893
5897 5896 5896 5896 5896 5895 5895 5895 5894 5894 5894 5894 5894 5893 5893 5893 5892 5892 5891 5891 5891 5890 5890 5889 5889 5889 5889 5889 5890 5890 5890 5890 5890 5890 5890 5891 5891 5891 5891 5891 5891 5891 5892
5895 5895 5895 5895 5894 5894 5894 5893 5893 5893 5893 5893 5892 5892 5892 5892 5891 5890 5890 5890 5889 5889 5888 5888 5888 5888 5888 5888 5888 5888 5888 5888 5888 5888 5888 5889 5889 5889 5890 5890 5890 5890 5890
5894 5894 5894 5893 5893 5893 5892 5892 5892 5892 5892 5892 5891 5891 5891 5890 5889 5889 5889 5888 5888 5887 5887 5886 5886 5886 5886 5886 5886 5886 5886 5886 5886 5886 5886 5887 5887 5887 5888 5888 5888 5888 5888
5893 5892 5892 5892 5891 5891 5891 5891 5891 5891 5891 5890 5890 5890 5889 5888 5887 5887 5887 5886 5886 5885 5885 5885 5884 5884 5884 5884 5884 5883 5883 5883 5884 5884 5884 5884 5885 5885 5885 5885 5886 5886 5886
5891 5891 5890 5890 5890 5889 5890 5890 5889 5889 5889 5889 5888 5888 5887 5887 5886 5886 5885 5885 5884 5884 5883 5883 5883 5882 5882 5882 5881 5881 5881 5881 5881 5881 5881 5882 5882 5883 5883 5883 5883 5884 5884
5889 5889 5889 5888 5888 5888 5888 5888 5888 5888 5888 5887 5887 5887 5886 5885 5885 5884 5884 5883 5883 5882 5881 5881 5881 5880 5880 5880 5879 5879 5879 5879 5879 5879 5879 5879 5879 5880 5880 5881 5881 5881 5882
5888 5888 5887 5887 5886 5886 5886 5886 5886 5886 5886 5886 5886 5885 5885 5884 5884 5883 5882 5882 5881 5881 5880 5879 5879 5878 5878 5878 5877 5877 5877 5876 5876 5876 5876 5877 5877 5877 5878 5878 5878 5879 5879
5886 5886 5885 5885 5885 5885 5884 5884 5884 5884 5884 5884 5884 5883 5883 5882 5882 5882 5881 5880 5880 5879 5878 5878 5877 5877 5876 5876 5875 5875 5875 5874 5874 5874 5874 5874 5874 5875 5875 5876 5876 5876 5877
5884 5884 5884 5883 5883 5883 5882 5883 5883 5883 5883 5883 5882 5882 5882 5881 5881 5880 5880 5879 5878 5878 5877 5876 5875 5875 5875 5874 5874 5873 5873 5872 5872 5872 5872 5872 5872 5872 5873 5873 5874 5874 5875
5882 5882 5882 5881 5881 5881 5881 5881 5881 5881 5881 5881 5881 5880 5880 5880 5880 5879 5878 5878 5877 5876 5876 5875 5874 5874 5873 5873 5872 5871 5871 5870 5870 5870 5870 5870 5870 5870 5871 5871 5872 5872 5873
5880 5880 5880 5880 5880 5879 5879 5879 5879 5880 5880 5880 5880 5880 5879 5879 5878 5878 5877 5877 5876 5875 5875 5874 5873 5873 5872 5871 5870 5870 5869 5869 5868 5868 5868 5868 5869 5869 5869 5870 5870 5871 5871
5879 5879 5879 5878 5878 5878 5878 5878 5878 5878 5879 5879 5879 5879 5878 5878 5877 5877 5876 5876 5875 5875 5874 5873 5873 5872 5871 5870 5869 5869 5868 5868 5867 5867 5867 5867 5867 5868 5868 5869 5869 5869 5869
5877 5877 5877 5877 5877 5876 5877 5877 5877 5877 5878 5878 5878 5878 5877 5877 5876 5876 5876 5875 5875 5874 5873 5873 5872 5871 5871 5870 5869 5868 5868 5867 5867 5866 5867 5867 5867 5867 5867 5868 5868 5868 5868
5875 5875 5875 5875 5875 5875 5875 5876 5876 5876 5876 5877 5877 5877 5877 5876 5876 5875 5875 5874 5874 5874 5873 5872 5872 5871 5870 5869 5869 5868 5867 5867 5866 5866 5866 5866 5866 5866 5867 5867 5867 5867 5867
5873 5873 5873 5873 5874 5874 5874 5875 5875 5875 5876 5876 5876 5876 5876 5876 5875 5875 5875 5874 5873 5873 5873 5872 5871 5871 5870 5869 5868 5868 5867 5867 5866 5866 5866 5866 5866 5866 5866 5866 5866 5866 5865
5871 5871 5871 5872 5872 5872 5873 5873 5874 5874 5875 5875 5875 5876 5875 5875 5875 5875 5874 5874 5873 5873 5873 5872 5871 5870 5870 5869 5868 5868 5867 5867 5867 5866 5866 5866 5866 5866 5866 5866 5866 5865 5865
5869 5869 5870 5870 5871 5871 5872 5872 5873 5873 5874 5874 5875 5875 5875 5875 5875 5874 5874 5874 5873 5873 5872 5872 5871 5870 5870 5869 5869 5868 5868 5867 5867 5867 5867 5866 5866 5866 5866 5866 5865 5865 5864
5867 5867 5868 5869 5869 5870 5871 5871 5872 5872 5873 5874 5874 5874 5874 5875 5874 5874 5874 5874 5873 5873 5872 5872 5871 5870 5870 5869 5869 5869 5868 5868 5867 5867 5867 5867 5867 5866 5866 5866 5865 5865 5864
5864 5865 5866 5867 5868 5869 5869 5870 5871 5872 5872 5873 5873 5874 5874 5874 5874 5874 5874 5874 5873 5873 5873 5872 5871 5871 5870 5870 5870 5869 5869 5869 5868 5868 5868 5867 5867 5866 5866 5865 5865 5864 5863
5862 5863 5864 5865 5866 5867 5868 5869 5870 5871 5872 5872 5873 5873 5874 5874 5874 5874 5874 5874 5873 5873 5873 5872 5871 5871 5870 5870 5870 5870 5870 5869 5869 5869 5868 5868 5867 5867 5866 5865 5865 5864 5863
5859 5860 5861 5863 5864 5865 5867 5868 5869 5870 5871 5872 5872 5873 5873 5873 5874 5874 5874 5873 5873 5873 5873 5872 5872 5871 5871 5871 5870 5870 5870 5870 5870 5869 5869 5868 5867 5867 5866 5866 5865 5864 5863
5856 5858 5859 5860 5862 5863 5865 5866 5868 5869 5870 5871 5872 5872 5873 5873 5873 5873 5873 5873 5873 5873 5873 5873 5872 5871 5871 5871 5871 5870 5870 5870 5870 5870 5869 5869 5868 5867 5867 5866 5865 5864 5863
5853 5855 5857 5858 5859 5861 5863 5865 5866 5868 5869 5870 5871 5872 5872 5873 5873 5873 5873 5873 5873 5873 5873 5872 5872 5871 5871 5871 5871 5871 5870 5870 5870 5869 5869 5869 5868 5868 5867 5866 5865 5864 5863